Simultaneous Nadir Overpasses (SNOs) Predictions

Prediction of SNOs between NOAA-15 and METOP-C Satellite Orbit:

Table of predicted SNOs for the next 14.0 days since TLE Epoch: 8/6/2020
Index Date (NOAA-15) Time (NOAA-15) Lat,Lon (NOAA-15) SZA (NOAA-15 ) Date (METOP-C) Time (METOP-C) Lat,Lon (METOP-C) SZA (METOP-C ) Distance(km) Time Diff (sec)
1 08/19/2020 21:10:15 80.94,-101.64 70.21 08/19/2020 21:09:04 80.95,-101.63 70.19 1.12 71
2 08/19/2020 22:00:47 -80.94, 65.70 109.78 08/19/2020 21:59:45 -80.94, 65.51 109.82 3.36 62
3 08/19/2020 22:51:18 80.95,-127.11 70.23 08/19/2020 22:50:26 80.94,-127.14 70.20 1.01 52
4 08/19/2020 23:41:50 -80.95, 40.24 109.77 08/19/2020 23:41:06 -80.95, 40.36 109.77 2.25 44
5 08/20/2020 00:32:20 80.94,-152.21 70.26 08/20/2020 00:31:47 80.95,-152.28 70.25 1.57 33
6 08/20/2020 01:22:52 -80.94, 15.14 109.74 08/20/2020 01:22:27 -80.96, 15.22 109.72 2.36 25
7 08/20/2020 02:13:23 80.95,-177.68 70.27 08/20/2020 02:13:09 80.94,-177.78 70.25 2.04 14
8 08/20/2020 03:03:55 -80.95, -10.33 109.72 08/20/2020 03:03:49 -80.95, -10.28 109.72 0.83 6
